Stations météo

réclame
Mon MeteoGroup
Charterhall, Grande-Bretagne (3158): Température de l'air & dewpoint: 18.10.2018 06:00:00 - 24.10.2018 06:00:00 (BST)Charterhall, Grande-Bretagne (3158): Température de l'air -20cm & Température de l'air -100cm: 18.10.2018 06:00:00 - 24.10.2018 06:00:00 (BST)Charterhall, Grande-Bretagne (3158): Vitesse du vent & gusts: 18.10.2018 06:00:00 - 24.10.2018 06:00:00 (BST)Charterhall, Grande-Bretagne (3158): Direction du vent: 18.10.2018 06:00:00 - 24.10.2018 06:00:00 (BST)Charterhall, Grande-Bretagne (3158): reduced air pressure: 18.10.2018 06:00:00 - 24.10.2018 06:00:00 (BST)Charterhall, Grande-Bretagne (3158): visibility: 18.10.2018 06:00:00 - 24.10.2018 06:00:00 (BST)Charterhall, Grande-Bretagne (3158): Ensoleillement: 18.10.2018 06:00:00 - 24.10.2018 06:00:00 (BST)Charterhall, Grande-Bretagne (3158): Quantités de précipitations: 18.10.2018 06:00:00 - 24.10.2018 06:00:00 (BST)
Date & Time tt [°C] td [°C] tt -20cm [°C] tt -100cm [°C] ff [km/h] ff [knt] fx [km/h] fx [knt] dd ppp [hPa] vv [km] sd [min] rr [mm]
24.10.2018 06:00:00 - - - - - - - - - - - - 0,0
24.10.2018 05:00:00 11,8 9,0 - - 29 16 61 33 W 1023,6 50 0 0,0
24.10.2018 04:00:00 11,7 9,1 - - 35 19 59 32 W 1023,5 50 0 0,0
24.10.2018 03:00:00 11,5 9,1 - - 35 19 59 32 W 1023,8 50 0 0,0
24.10.2018 02:00:00 11,7 9,2 - - 41 22 63 34 W 1024,1 50 0 0,0
24.10.2018 01:00:00 12,0 9,3 - - 42 23 63 34 W 1024,0 50 - 0,0
24.10.2018 00:00:00 12,5 9,7 - - 41 22 65 35 W 1024,2 50 0 0,0
23.10.2018 23:00:00 13,3 10,4 - - 34 18 52 28 W 1023,3 50 0 0,0
23.10.2018 22:00:00 13,4 10,2 - - 37 20 55 30 W 1022,5 50 0 0,0
23.10.2018 21:00:00 13,0 10,1 - - 35 19 52 28 W 1022,9 50 0 0,0
23.10.2018 20:00:00 12,8 10,0 - - 26 14 - - WSW 1023,1 50 0 0,0
23.10.2018 19:00:00 12,9 9,7 - - 28 15 52 28 W 1022,9 50 0 0,0
23.10.2018 18:00:00 12,8 9,5 - - 34 18 55 30 W 1022,7 50 0 0,0
23.10.2018 17:00:00 12,9 9,5 - - 39 21 59 32 W 1022,2 50 6 0,0
23.10.2018 16:00:00 13,7 9,7 - - 31 17 61 33 W 1022,2 50 42 0,0
23.10.2018 15:00:00 14,5 9,9 - - 44 24 68 37 W 1022,4 50 60 0,0
23.10.2018 14:00:00 14,9 9,9 - - 42 23 65 35 W 1022,6 45 60 0,0
23.10.2018 13:00:00 14,2 9,2 - - 44 24 74 40 W 1022,4 45 60 0,0
23.10.2018 12:00:00 13,6 8,8 - - 46 25 74 40 W 1022,1 50 60 0,0
23.10.2018 11:00:00 13,1 8,1 - - 41 22 68 37 W 1022,7 50 60 0,0
23.10.2018 10:00:00 12,0 7,5 10,0 11,4 34 18 78 42 WSW 1022,4 45 24 0,0
23.10.2018 09:00:00 11,4 7,0 - - 46 25 87 47 W 1021,8 28 0 0,0
23.10.2018 08:00:00 11,0 6,4 - - 39 21 67 36 W 1021,8 29 0 0,0
23.10.2018 07:00:00 10,6 5,9 - - 29 16 61 33 WSW 1022,2 40 0 0,0
23.10.2018 06:00:00 11,0 5,9 - - 39 21 65 35 W 1023,1 30 0 0,0
23.10.2018 05:00:00 11,2 6,8 - - 41 22 68 37 W 1022,8 27 0 0,0
23.10.2018 04:00:00 11,1 6,9 - - 44 24 70 38 W 1022,8 19 0 0,0
23.10.2018 03:00:00 10,9 6,4 - - 41 22 67 36 W 1023,8 28 0 0,0
23.10.2018 02:00:00 11,0 5,8 - - 44 24 70 38 W 1024,8 25 0 0,0
23.10.2018 01:00:00 11,0 5,6 - - 48 26 74 40 W 1024,9 23 - 0,0
23.10.2018 00:00:00 10,9 5,5 - - 41 22 80 43 W 1025,8 27 0 0,0
22.10.2018 23:00:00 10,8 5,3 - - 48 26 74 40 W 1026,8 25 0 0,0
22.10.2018 22:00:00 10,7 5,1 - - 44 24 68 37 W 1027,2 45 0 0,0
22.10.2018 21:00:00 10,6 5,3 - - 42 23 80 43 W 1027,9 30 0 0,0
22.10.2018 20:00:00 10,5 5,2 - - 48 26 80 43 W 1027,5 30 0 0,0
22.10.2018 19:00:00 10,5 5,5 - - 42 23 63 34 W 1028,2 50 0 0,0
22.10.2018 18:00:00 10,4 6,3 - - 42 23 70 38 W 1029,0 50 0 0,0
22.10.2018 17:00:00 10,6 6,3 - - 44 24 72 39 W 1029,4 50 0 0,0
22.10.2018 16:00:00 11,2 5,8 - - 44 24 65 35 W 1030,4 50 54 0,0
22.10.2018 15:00:00 11,7 5,4 - - 37 20 68 37 W 1031,3 50 48 0,0
22.10.2018 14:00:00 11,5 3,8 - - 26 14 55 30 W 1032,9 50 60 0,0
22.10.2018 13:00:00 11,3 5,4 - - 24 13 - - W 1033,6 28 60 0,0
22.10.2018 12:00:00 10,9 5,0 - - 28 15 - - W 1034,5 50 60 0,0
22.10.2018 11:00:00 9,8 5,2 - - 18 10 - - WSW 1034,7 50 42 0,0
22.10.2018 10:00:00 7,3 4,4 10,4 11,5 11 6 - - SSW 1035,2 30 54 0,0
22.10.2018 09:00:00 4,6 2,9 - - 13 7 - - SSW 1034,8 23 12 0,0
22.10.2018 08:00:00 3,8 2,0 - - 11 6 - - WSW 1034,6 20 0 0,0
22.10.2018 07:00:00 3,9 1,8 - - 11 6 - - WSW 1034,0 29 0 0,0
22.10.2018 06:00:00 4,5 2,1 - - 11 6 - - WSW 1033,6 30 0 0,0
22.10.2018 05:00:00 4,7 2,2 - - 11 6 - - WSW 1033,1 50 0 0,0
22.10.2018 04:00:00 5,0 2,7 - - 15 8 - - W 1032,8 50 0 0,0
22.10.2018 03:00:00 4,2 2,5 - - 8 4 - - WSW 1032,1 50 0 0,0
22.10.2018 02:00:00 4,3 2,3 - - 9 5 - - SW 1031,3 45 0 0,0
22.10.2018 01:00:00 3,8 2,3 - - 8 4 74 40 SSW 1031,2 45 - 0,0
22.10.2018 00:00:00 6,6 2,9 - - 13 7 - - WSW 1030,5 50 0 0,0
21.10.2018 23:00:00 6,3 3,0 - - 11 6 - - WSW 1029,8 50 0 0,0
21.10.2018 22:00:00 5,9 2,4 - - 11 6 - - W 1029,3 45 0 0,0
21.10.2018 21:00:00 7,0 3,0 - - 11 6 - - WSW 1028,9 50 0 0,0
21.10.2018 20:00:00 8,5 3,2 - - 13 7 - - W 1028,3 45 0 0,0
21.10.2018 19:00:00 8,8 3,5 - - 18 10 - - W 1027,1 50 0 0,0
21.10.2018 18:00:00 9,7 4,6 - - 21 11 - - W 1025,9 50 0 0,0
21.10.2018 17:00:00 11,4 6,3 - - 26 14 - - W 1024,6 50 48 0,0
21.10.2018 16:00:00 12,0 7,6 - - 22 12 - - W 1023,9 50 0 0,0
21.10.2018 15:00:00 11,8 7,5 - - 21 11 - - W 1023,5 50 0 0,0
21.10.2018 14:00:00 11,7 6,8 - - 28 15 48 26 W 1022,8 50 0 0,0
21.10.2018 13:00:00 12,2 9,3 - - 21 11 - - W 1022,2 20 0 0,0
21.10.2018 12:00:00 12,8 10,3 - - 24 13 48 26 W 1021,8 50 6 1,0
21.10.2018 11:00:00 14,9 13,2 - - 31 17 46 25 SW 1020,4 50 0 0,0
21.10.2018 10:00:00 13,7 12,6 10,7 11,5 34 18 50 27 SW 1020,4 40 0 0,0
21.10.2018 09:00:00 13,7 12,4 - - 29 16 - - SW 1020,5 45 0 0,0
21.10.2018 08:00:00 13,9 12,3 - - 22 12 - - WSW 1020,8 50 0 0,0
21.10.2018 07:00:00 13,7 12,0 - - 24 13 - - SW 1020,7 50 0 0,0
21.10.2018 06:00:00 13,2 12,1 - - 29 16 - - SW 1020,9 40 0 0,0
21.10.2018 05:00:00 13,4 12,5 - - 22 12 - - SW 1021,5 25 0 0,0
21.10.2018 04:00:00 13,2 12,4 - - 22 12 - - SSW 1022,2 21 0 0,0
21.10.2018 03:00:00 13,1 12,3 - - 28 15 - - SW 1022,7 15 0 0,0
21.10.2018 02:00:00 13,0 12,1 - - 22 12 - - SW 1023,3 20 0 0,0
21.10.2018 01:00:00 12,7 11,7 - - 22 12 - - SW 1023,8 45 - 0,0
21.10.2018 00:00:00 12,7 11,6 - - 22 12 - - SW 1024,1 50 0 0,0
20.10.2018 23:00:00 12,8 11,7 - - 16 9 - - SW 1024,7 50 0 0,0
20.10.2018 22:00:00 12,2 11,1 - - 21 11 - - SW 1024,7 50 0 0,0
20.10.2018 21:00:00 12,0 10,8 - - 24 13 - - SW 1024,7 50 0 0,0
20.10.2018 20:00:00 12,7 11,3 - - 28 15 - - SW 1024,9 50 0 0,0
20.10.2018 19:00:00 12,9 11,2 - - 24 13 - - SW 1024,8 50 0 0,0
20.10.2018 18:00:00 12,9 11,0 - - 24 13 - - SW 1024,5 45 0 0,0
20.10.2018 17:00:00 13,5 11,5 - - 24 13 - - SW 1024,5 50 6 0,0
20.10.2018 16:00:00 14,4 12,0 - - 24 13 - - SSW 1024,5 50 12 0,0
20.10.2018 15:00:00 15,6 12,1 - - 34 18 48 26 SW 1024,2 50 60 0,0
20.10.2018 14:00:00 15,5 11,8 - - 34 18 46 25 SW 1024,3 50 42 0,0
20.10.2018 13:00:00 13,8 12,0 - - 24 13 - - SW 1025,1 50 0 0,0
20.10.2018 12:00:00 13,0 11,4 - - 24 13 - - SW 1025,4 50 0 0,0
20.10.2018 11:00:00 12,8 11,0 - - 26 14 - - SW 1025,2 50 0 -
20.10.2018 10:00:00 12,4 10,8 10,0 11,7 26 14 - - SW 1025,5 50 0 0,0
20.10.2018 09:00:00 12,0 10,8 - - 16 9 - - SW 1024,9 15 0 0,0
20.10.2018 08:00:00 11,5 10,7 - - 18 10 - - SW 1025,1 15 0 0,0
20.10.2018 07:00:00 10,9 10,4 - - 21 11 - - SW 1025,1 13 0 0,0
20.10.2018 06:00:00 9,9 9,6 - - 13 7 - - SW 1025,1 17 0 0,0
20.10.2018 05:00:00 7,7 7,1 - - 2 1 - - E 1025,2 10 0 0,0
20.10.2018 04:00:00 7,4 6,8 - - 5 3 - - W 1025,5 19 0 0,0
20.10.2018 03:00:00 6,7 6,0 - - 13 7 - - W 1025,9 50 0 0,0
20.10.2018 02:00:00 6,4 5,7 - - 9 5 - - W 1026,0 50 0 0,0
20.10.2018 01:00:00 5,8 4,7 - - 9 5 - - W 1026,1 35 - 0,0
20.10.2018 00:00:00 6,6 5,2 - - 9 5 - - WSW 1026,2 40 0 0,0
19.10.2018 23:00:00 7,4 6,0 - - 11 6 - - W 1025,7 45 0 0,0
19.10.2018 22:00:00 8,3 6,7 - - 18 10 - - W 1025,2 45 0 0,0
19.10.2018 21:00:00 8,0 7,0 - - 9 5 - - W 1025,0 50 0 0,0
19.10.2018 20:00:00 8,6 8,0 - - 5 3 - - WSW 1024,4 50 0 0,0
19.10.2018 19:00:00 9,6 9,0 - - 11 6 - - WSW 1023,4 45 0 0,0
19.10.2018 18:00:00 10,3 9,6 - - 13 7 - - SW 1023,0 35 0 0,0
19.10.2018 17:00:00 10,5 9,6 - - 13 7 - - SW 1022,7 24 0 0,2
19.10.2018 16:00:00 11,9 8,8 - - 22 12 - - SW 1021,9 45 18 0,0
19.10.2018 15:00:00 12,0 8,4 - - 31 17 - - SW 1021,2 50 18 0,0
19.10.2018 14:00:00 12,0 8,5 - - 22 12 50 27 SW 1021,2 50 6 0,0
19.10.2018 13:00:00 12,9 7,6 - - 34 18 57 31 SW 1020,9 45 60 0,0
19.10.2018 12:00:00 11,9 7,1 - - 35 19 54 29 SW 1020,6 35 42 0,0
19.10.2018 11:00:00 9,5 6,4 - - 21 11 - - SSW 1021,4 24 48 0,0
19.10.2018 10:00:00 6,7 4,8 10,0 11,7 15 8 - - SW 1022,1 16 6 0,0
19.10.2018 09:00:00 5,1 3,9 - - 8 4 - - W 1022,0 17 0 0,0
19.10.2018 08:00:00 4,0 2,3 - - 13 7 - - W 1022,2 24 0 0,0
19.10.2018 07:00:00 2,3 0,9 - - 11 6 - - SW 1022,1 50 0 0,0
19.10.2018 06:00:00 3,6 2,0 - - 13 7 - - W 1023,1 50 0 0,0
19.10.2018 05:00:00 4,3 2,6 - - 13 7 - - WSW 1023,1 50 0 0,0
19.10.2018 04:00:00 4,1 2,7 - - 11 6 - - W 1024,0 50 0 0,0
19.10.2018 03:00:00 2,9 2,1 - - 9 5 - - W 1024,7 50 0 0,0
19.10.2018 02:00:00 1,2 0,4 - - 8 4 - - WSW 1024,9 50 0 0,0
19.10.2018 01:00:00 2,2 1,4 - - 5 3 - - SSW 1025,7 50 - 0,0
19.10.2018 00:00:00 3,4 2,1 - - 11 6 - - W 1026,1 50 0 0,0
18.10.2018 23:00:00 3,7 2,5 - - 5 3 - - WSW 1026,5 50 0 0,0
18.10.2018 22:00:00 4,1 2,7 - - 8 4 - - SW 1026,6 45 0 0,0
18.10.2018 21:00:00 5,1 2,8 - - 4 2 - - SW 1026,8 50 0 0,0
18.10.2018 20:00:00 8,1 4,2 - - 5 3 - - SSW 1026,6 50 0 0,0
18.10.2018 19:00:00 8,2 4,0 - - 9 5 - - SW 1026,9 50 0 0,0
18.10.2018 18:00:00 8,1 3,9 - - 5 3 - - WSW 1026,9 50 6 0,0
18.10.2018 17:00:00 10,8 3,9 - - 9 5 - - SW 1027,1 50 0 0,0
18.10.2018 16:00:00 10,9 4,6 - - 5 3 - - S 1027,2 50 36 0,0
18.10.2018 15:00:00 12,4 4,5 - - 8 4 - - WSW 1027,4 50 18 0,0
18.10.2018 14:00:00 11,5 4,3 - - 15 8 - - SW 1027,9 50 48 0,0
18.10.2018 13:00:00 11,3 6,5 - - 11 6 - - SSW 1028,4 40 60 0,0
18.10.2018 12:00:00 10,1 6,9 - - 9 5 - - SSW 1028,7 45 60 0,0
18.10.2018 11:00:00 7,8 5,4 - - 13 7 - - SSW 1029,1 35 60 0,0
18.10.2018 10:00:00 6,3 4,5 10,4 11,9 11 6 - - SSW 1029,1 24 60 0,0
18.10.2018 09:00:00 2,6 2,1 - - 9 5 - - W 1028,9 35 24 0,0
18.10.2018 08:00:00 1,0 0,2 - - 4 2 - - S 1028,8 18 0 0,0
18.10.2018 07:00:00 2,2 1,6 - - 4 2 - - W 1028,2 40 0 0,0
18.10.2018 06:00:00 1,9 0,9 - - 15 8 - - SW 1027,9 40 0 0,0

tt = Température de l'air
td = dewpoint
tt -20cm = Température de l'air -20cm
tt -100cm = Température de l'air -100cm
ff = Vitesse du vent
fx = gusts
dd = Direction du vent
ppp = reduced air pressure
vv = visibility
sd = Ensoleillement
rr = Quantités de précipitations

stations d'obs. à proximité